Overview Statistics Trail Chart Weather Telemetry Raw packets
 

This is the latest recevied weather packets stored in our database for station/object KO6HRZ. If no packets are shown the sender has not sent any weather packets the latest 10 day(s).

<< 14 15 16 17 18 19 20 >>
Time Temp. Humidity Pressure Rain* Wind** Luminosity Snow
1788447563 15° C 91% 1013.9 hPa 0 mm - 46 W/m² -
1788446958 14.44° C 92% 1013.8 hPa 0 mm - 34 W/m² -
1788446353 14.44° C 92% 1013.7 hPa 0 mm - 28 W/m² -
1788445751 14.44° C 92% 1013.6 hPa 0 mm - 27 W/m² -
1788445148 14.44° C 92% 1013.4 hPa 0 mm - 22 W/m² -
1788444545 13.89° C 92% 1013.6 hPa 0 mm - 20 W/m² -
1788443941 13.89° C 92% 1013.5 hPa 0 mm - 16 W/m² -
1788443341 13.89° C 92% 1013.4 hPa 0 mm - 8 W/m² -
1788442740 13.89° C 92% 1013.3 hPa 0 mm - 4 W/m² -
1788442137 13.89° C 92% 1013.3 hPa 0 mm - 1 W/m² -
1788441532 13.89° C 92% 1013.4 hPa 0 mm - 0 W/m² -
1788440932 13.89° C 92% 1013.5 hPa 0 mm - 0 W/m² -
1788440331 13.89° C 92% 1013.4 hPa 0 mm - 0 W/m² -
1788439731 13.89° C 92% 1013.5 hPa 0 mm - 0 W/m² -
1788439131 13.89° C 91% 1013.5 hPa 0 mm - 0 W/m² -
1788438531 13.89° C 91% 1013.6 hPa 0 mm - 0 W/m² -
1788437945 14.44° C 91% 1013.4 hPa 0 mm - 0 W/m² -
1788437328 13.89° C 91% 1013.7 hPa 0 mm - 0 W/m² -
1788436725 13.89° C 91% 1013.5 hPa 0 mm - 0 W/m² -
1788436119 14.44° C 91% 1013.7 hPa 0 mm - 0 W/m² -
1788435517 14.44° C 91% 1013.7 hPa 0 mm - 0 W/m² -
1788434914 14.44° C 91% 1013.6 hPa 0 mm - 0 W/m² -
1788434308 14.44° C 90% 1013.8 hPa 0 mm - 0 W/m² -
1788433705 14.44° C 90% 1014 hPa 0 mm - 0 W/m² -
1788433100 14.44° C 90% 1014.1 hPa 0 mm - 0 W/m² -

* Rain latest hour (hover to see other rain measurements)
** Current wind speed in m/s (hover to see current wind gust speed)